Regional Weather Roundup
Issued by NWS Green Bay, WI

Home | Current Version | Previous Version | Text Only | Print | Product List | Glossary On
Versions: 1 2 3 4 5 6 7 8 9 10 11 12 13 14 15 16 17 18 19 20 21 22 23 24 25 26 27 28 29 30 31 32 33 34 35 36 37 38 39 40 41 42 43 44 45 46 47 48 49 50
000
ASUS43 KGRB 110611
RWRGRB

NORTH-CENTRAL AND NORTHEAST WISCONSIN REGIONAL WEATHER ROUNDUP
NATIONAL WEATHER SERVICE GREEN BAY WI
1200 AM CST SUN DEC 11 2016

WIZ005-009-010>012-018-019-110700-
NORTH CENTRAL WISCONSIN

CITY           SKY/WX    TMP DP  RH WIND       PRES   REMARKS
IRONWOOD       PTCLDY     0  -4  83 CALM      30.23F
MANITOWISH WTR CLOUDY     5   2  91 CALM      30.17F
ARBOR VITAE    CLOUDY     9   5  83 CALM      30.17F
EAGLE RIVER    CLOUDY     5   0  82 CALM      30.19F
LAND O LAKES   CLOUDY     1  -2  85 CALM      30.20F
RHINELANDER    CLOUDY     9   4  80 SE3       30.19F HAZE
PHILLIPS       FLURRIES   9   6  87 SE6       30.18F WCI  -1
ANTIGO         LGT SNOW   9   6  87 SE5       30.20F WCI   1
TOMAHAWK       LGT SNOW   9   5  86 CALM      30.21S
MERRILL        LGT SNOW  11   8  87 CALM      30.22F
$$

WIZ013-073-110700-
NORTHEAST WISCONSIN

CITY           SKY/WX    TMP DP  RH WIND       PRES   REMARKS
IRON MOUNTAIN  CLOUDY     8   2  76 CALM      30.23F
MARINETTE      FLURRIES  15   4  61 CALM      30.31F
OCONTO         CLOUDY    14   9  79 CALM      30.31S
$$

WIZ017-030-035>037-045-110700-
CENTRAL WISCONSIN

CITY           SKY/WX    TMP DP  RH WIND       PRES   REMARKS
MEDFORD        LGT SNOW  11   7  85 CALM      30.17S
WAUSAU         LGT SNOW  11   8  88 E6        30.20F FOG     WCI   1
MOSINEE        LGT SNOW  14  12  92 E5        30.21F WCI   6
MARSHFIELD     LGT SNOW  14  10  84 E6        30.18F FOG     WCI   5
WISC RAPIDS    LGT SNOW  15  13  91 SE7       30.22F FOG     WCI   5
STEVENS POINT  LGT SNOW  13  10  91 E6        30.22F WCI   3
WAUPACA        LGT SNOW  18  15  86 CALM      30.25F
SHAWANO        LGT SNOW  16  12  84 CALM      30.28F
CLINTONVILLE   LGT SNOW  18  12  79 E3        30.26F
WAUTOMA        LGT SNOW  16  14  92 E5        30.23F VSB 1   WCI   9
$$

WIZ038-039-048-051-110700-
FOX VALLEY

CITY           SKY/WX    TMP DP  RH WIND       PRES   REMARKS
NWS GREEN BAY  LGT SNOW  19  15  84 E3        30.28F FOG
APPLETON       LGT SNOW  18  14  86 E3        30.23F
OSHKOSH        LGT SNOW  19  15  84 E6        30.25F VSB 1
FOND DU LAC    LGT SNOW  20  15  81 SE6       30.24F
$$

WIZ022-050-052-110700-
EAST CENTRAL WISCONSIN

CITY           SKY/WX    TMP DP  RH WIND       PRES   REMARKS
EPHRAIM        CLOUDY    17   8  67 CALM      30.28S
WASHINGTON ISL CLOUDY    19   9  67 CALM      30.29S
STURGEON BAY   LGT SNOW  17  11  77 S3        30.30F
MANITOWOC      LGT SNOW  17  15  92 CALM      30.30F FOG
SHEBOYGAN      LGT SNOW  18  15  88 CALM      30.28F FOG
$$

LMZ563-521-522-541>543-110700-
LAKESHORE

STATION/POSITION TIME  TEMP    WIND        PRES    VSBY  WAVE
                       AIR SEA DIR/SP/G                  HT/PER
                 (UTC) (F)     (DEG/KT/KT) (MB)    (MI)  (FT/S)
SHEBOYGAN LKSHOR 0600   20     260/  4/  4 1026.4F
KEWAUNEE LKSHORE 0542   17      CALM  /  1 1025.6F
ALGOMA MARINA    0536             CALM       N/A
NORTHPORT PIER   0540   18      CALM  /  2 1026.1F
SISTER BAY LKSHO 0535   20     280/  9/ 11   N/A
CHAMBERS ISLAND  0540   17     230/  2/  7 1025.4F
MENOMINEE LKSHOR 0542   16     220/  3/  4 1025.3F
$$




USA.gov is the U.S. government's official web portal to all federal, state and local government web resources and services.